Location: Luxembourg
(49.6000°N, 6.1500°W)
Time: 03:59:09
(UTC+01:00)

Amateur Radio Satellites - All Passes

Search period start: 18 November 2017 03:29
Search period end: 19 November 2017 03:29
Location: Luxembourg, 49.6000°N, 6.1500°W

Satellite Date Start Highest point End Downlink Frequencies (MHz)
Time Altitude Azimuth
AO-7 18 Nov 03:35:49 03:41:51 21° 88° (E) 03:47:53 .
DUCHIFAT 1 18 Nov 03:36:43 03:37:39 11° 305° (NW) 03:38:34 145.980
DX 1 18 Nov 03:36:58 03:39:23 14° 271° (W) 03:41:48 434.975-435.025
ISS 18 Nov 03:47:40 03:50:56 67° 10° (N) 03:54:11 437.550
BEESAT 18 Nov 03:47:47 03:52:34 86° 75° (ENE) 03:57:23 436.000
ITUPSAT 1 18 Nov 03:54:43 03:59:31 84° 254° (WSW) 04:04:21 437.325
KKS-1 18 Nov 03:55:53 03:57:23 12° 53° (NE) 03:58:52 437.445
Gurwin Techsat 1B 18 Nov 04:15:35 04:20:40 46° 293° (WNW) 04:25:42 435.225
Oscar 19 18 Nov 04:22:27 04:26:54 30° 298° (WNW) 04:31:20 437.125/150
ITAMSAT 1 18 Nov 04:26:48 04:31:16 28° 94° (E) 04:35:40 435.822/435.867
PCSat 18 Nov 04:30:15 04:35:00 30° 323° (NW) 04:39:47 145.827
STARS 18 Nov 04:31:47 04:32:59 11° 53° (NE) 04:34:10 437.465
CUBESAT XI-V 18 Nov 04:46:05 04:50:40 85° 254° (WSW) 04:55:19 437.345
MOZHAYETS 4 18 Nov 04:46:26 04:50:07 24° 267° (W) 04:53:49
M-CUBED/EXP-1 PRIME 18 Nov 04:48:48 04:53:11 67° 293° (WNW) 04:57:44 437.505
SO-50 18 Nov 04:49:24 04:51:24 13° 4° (N) 04:53:24 436.795
nSIGHT-1 18 Nov 04:52:47 04:55:57 56° 206° (SSW) 04:59:05 .
RS-15 18 Nov 04:54:18 05:06:25 82° 48° (NE) 05:17:50 29.354- 29.394
DOVE 4 18 Nov 05:04:12 05:06:46 14° 84° (E) 05:09:18 437.250
YUBILEINY 18 Nov 05:16:58 05:21:34 16° 70° (ENE) 05:26:10 435.215
BEESAT 3 18 Nov 05:17:53 05:21:48 57° 124° (SE) 05:25:45 437.485
ISS 18 Nov 05:24:14 05:27:20 41° 210° (SSW) 05:30:26 437.550
AO-7 18 Nov 05:27:26 05:35:50 84° 109° (ESE) 05:44:13 .
BEESAT 18 Nov 05:28:38 05:31:00 13° 273° (W) 05:33:21 436.000
KKS-1 18 Nov 05:28:39 05:33:08 72° 72° (ENE) 05:37:37 437.445
ITUPSAT 1 18 Nov 05:36:19 05:38:05 12° 274° (W) 05:39:53 437.325
STRAND 1 18 Nov 05:48:52 05:49:22 10° 48° (NE) 05:49:51 437.568
STARS 18 Nov 06:04:05 06:08:30 69° 72° (ENE) 06:12:56 437.465
ITAMSAT 1 18 Nov 06:05:56 06:10:58 49° 293° (WNW) 06:15:57 435.822/435.867
PCSat 18 Nov 06:17:32 06:20:13 14° 348° (NNW) 06:22:55 145.827
BEESAT 2 18 Nov 06:19:46 06:23:47 72° 126° (SE) 06:27:51 435.950
M-CUBED/EXP-1 PRIME 18 Nov 06:25:06 06:26:50 12° 311° (NW) 06:28:36 437.505
CUBESAT XI-V 18 Nov 06:27:19 06:28:47 11° 275° (W) 06:30:15 437.345
XW-2D 18 Nov 06:27:31 06:29:28 13° 89° (E) 06:31:24 145.860 - 145.880
SO-50 18 Nov 06:29:50 06:33:29 23° 29° (NNE) 06:37:11 436.795
nSIGHT-1 18 Nov 06:30:18 06:31:37 12° 224° (SW) 06:32:57 .
DOVE 4 18 Nov 06:39:57 06:45:17 84° 105° (ESE) 06:50:24 437.250
AO-85 18 Nov 06:40:44 06:44:30 49° 123° (ESE) 06:48:29 145.980
XW-2B 18 Nov 06:41:37 06:44:17 18° 92° (E) 06:46:58 145.730 - 145.750
BEESAT 3 18 Nov 06:56:14 06:59:37 25° 325° (NW) 07:03:01 437.485
LilacSat-2 18 Nov 07:03:30 07:06:59 33° 96° (E) 07:10:29 437.200
XW-2C 18 Nov 07:06:23 07:09:51 33° 97° (E) 07:13:19 145.795 - 145.815
KKS-1 18 Nov 07:07:35 07:10:11 15° 271° (W) 07:12:47 437.445
RS-15 18 Nov 07:07:35 07:17:42 36° 254° (WSW) 07:27:24 29.354- 29.394
YUBILEINY 18 Nov 07:07:57 07:16:34 67° 93° (E) 07:25:17 435.215
CUTE-I 18 Nov 07:10:18 07:15:09 33° 95° (E) 07:19:57 437.470
NUDT-PHONESAT 18 Nov 07:13:07 07:16:19 27° 95° (E) 07:19:31 437.300
XW-2F 18 Nov 07:20:37 07:24:16 44° 99° (E) 07:27:54 145.980 - 146.000
AO-7 18 Nov 07:20:54 07:27:49 31° 312° (NW) 07:34:45 .
CUTE 1.7 + AOD 2 18 Nov 07:21:14 07:23:33 14° 88° (E) 07:25:52 437.475
STRAND 1 18 Nov 07:22:27 07:27:25 51° 68° (ENE) 07:32:26 437.568
FO-29 18 Nov 07:32:24 07:37:54 27° 53° (NE) 07:43:51 435.910
HO-68 18 Nov 07:34:51 07:40:52 28° 92° (E) 07:46:49 435.675
CUBEBUG 2 18 Nov 07:38:17 07:39:58 12° 86° (E) 07:41:39 437.445
STARS 18 Nov 07:42:40 07:45:18 15° 271° (W) 07:47:57 437.465
KAITUO 1B 18 Nov 07:55:10 07:58:56 87° 98° (E) 08:02:43 145.475/437.950
SEEDS 18 Nov 07:58:33 08:01:48 21° 92° (E) 08:05:02 437.485
BEESAT 2 18 Nov 07:58:40 08:01:56 23° 327° (NNW) 08:05:12 435.950
XW-2D 18 Nov 08:00:16 08:04:01 59° 286° (WNW) 08:07:45 145.860 - 145.880
PCSat 18 Nov 08:03:12 08:06:02 14° 14° (NNE) 08:08:52 145.827
SO-50 18 Nov 08:09:56 08:14:35 86° 50° (NE) 08:19:17 436.795
XW-2B 18 Nov 08:15:04 08:18:40 42° 289° (WNW) 08:22:16 145.730 - 145.750
AAUSAT CUBESAT 2 18 Nov 08:17:33 08:20:03 15° 89° (E) 08:22:33 437.432
DOVE 4 18 Nov 08:18:43 08:22:15 19° 303° (WNW) 08:25:46 437.250
AO-85 18 Nov 08:21:39 08:25:07 28° 325° (NW) 08:28:46 145.980
BEESAT 3 18 Nov 08:37:43 08:38:29 10° 347° (NNW) 08:39:14 437.485
LilacSat-2 18 Nov 08:38:01 08:41:08 24° 294° (WNW) 08:44:14 437.200
XW-2C 18 Nov 08:40:49 08:43:54 24° 295° (WNW) 08:46:58 145.795 - 145.815
ZACube-1 18 Nov 08:41:10 08:43:54 17° 90° (E) 08:46:38 437.345
UWE-3 18 Nov 08:41:37 08:45:20 30° 95° (E) 08:48:58 435.000/436.395/437.385
NUDT-PHONESAT 18 Nov 08:46:58 08:50:08 27° 293° (WNW) 08:53:16 437.300
CUTE-I 18 Nov 08:50:15 08:55:18 43° 294° (WNW) 09:00:20 437.470
XW-2F 18 Nov 08:55:25 08:58:05 19° 297° (WNW) 09:00:45 145.980 - 146.000
CUTE 1.7 + AOD 2 18 Nov 08:55:36 08:59:51 69° 287° (WNW) 09:04:05 437.475
STRAND 1 18 Nov 09:02:36 09:06:53 26° 267° (W) 09:11:10 437.568
YUBILEINY 18 Nov 09:06:14 09:14:02 35° 297° (WNW) 09:21:58 435.215
UNISAT 6 18 Nov 09:12:55 09:16:37 25° 63° (ENE) 09:20:16 437.425
CUBEBUG 2 18 Nov 09:12:57 09:17:12 77° 286° (WNW) 09:21:21 437.445
FO-29 18 Nov 09:15:31 09:22:07 81° 257° (WSW) 09:29:35 435.910
AO-7 18 Nov 09:15:44 09:17:57 11° 337° (NNW) 09:20:10 .
TIGRISAT 18 Nov 09:18:17 09:22:02 25° 64° (ENE) 09:25:43 435.000
HO-68 18 Nov 09:22:02 09:29:12 71° 293° (WNW) 09:36:20 435.675
KAITUO 1B 18 Nov 09:31:19 09:32:19 11° 302° (WNW) 09:33:19 145.475/437.950
SEEDS 18 Nov 09:33:38 09:37:42 45° 290° (WNW) 09:41:44 437.485
XW-2A 18 Nov 09:33:38 09:36:59 71° 286° (WNW) 09:40:19 145.665 - 145.685
AO-73 18 Nov 09:33:39 09:37:41 49° 99° (E) 09:41:42 145.935
BEESAT 2 18 Nov 09:40:37 09:41:06 10° 350° (N) 09:41:34 435.950
PRISM 18 Nov 09:45:52 09:48:51 19° 61° (ENE) 09:51:50 437.425
PCSat 18 Nov 09:46:17 09:51:11 32° 39° (NE) 09:56:02 145.827
SO-50 18 Nov 09:51:39 09:54:28 16° 248° (WSW) 09:57:17 436.795
AAUSAT CUBESAT 2 18 Nov 09:51:45 09:55:55 62° 287° (WNW) 10:00:02 437.432
Oscar 11 18 Nov 09:54:15 09:58:31 56° 100° (E) 10:02:46 .
AO-85 18 Nov 10:05:17 10:06:56 12° 349° (N) 10:08:37 145.980
ZACube-1 18 Nov 10:16:29 10:20:32 53° 289° (WNW) 10:24:34 437.345
BEESAT 3 18 Nov 10:17:13 10:17:49 10° 12° (NNE) 10:18:27 437.485
UWE-3 18 Nov 10:18:07 10:21:47 30° 294° (WNW) 10:25:24 435.000/436.395/437.385
AIST 2D 18 Nov 10:24:25 10:25:43 12° 60° (ENE) 10:27:02 435.315
CUTE 1.7 + AOD 2 18 Nov 10:34:24 10:34:53 10° 305° (NW) 10:35:21 437.475
UNISAT 6 18 Nov 10:48:41 10:53:07 46° 262° (W) 10:57:28 437.425
CUBEBUG 2 18 Nov 10:51:59 10:53:02 11° 305° (NW) 10:54:06 437.445
TIGRISAT 18 Nov 10:54:06 10:58:31 44° 261° (W) 11:02:51 435.000
DELFI C3 18 Nov 10:56:49 11:00:48 58° 100° (E) 11:04:44 145.870
FO-29 18 Nov 11:04:08 11:08:28 18° 279° (W) 11:13:07 435.910
AO-73 18 Nov 11:10:38 11:13:37 20° 298° (WNW) 11:16:37 145.935
HO-68 18 Nov 11:10:58 11:15:47 20° 314° (NW) 11:20:37 435.675
Max Valier Satellite 18 Nov 11:14:14 11:17:53 64° 101° (ESE) 11:21:31 145.860
BEESAT 2 18 Nov 11:19:16 11:20:38 11° 15° (NNE) 11:22:00 435.950
PRISM 18 Nov 11:19:45 11:23:46 52° 260° (W) 11:27:51 437.425
DUCHIFAT 1 18 Nov 11:20:02 11:22:53 18° 61° (ENE) 11:25:45 145.980
EO-88 18 Nov 11:21:10 11:24:46 54° 101° (E) 11:28:20 145.990 - 145.960
EO-79 18 Nov 11:22:09 11:25:31 23° 63° (ENE) 11:28:53 145.935-145.965
NANOSAT C BR1 18 Nov 11:27:52 11:31:14 23° 63° (ENE) 11:34:36 145.865
PCSat 18 Nov 11:29:34 11:34:55 60° 241° (WSW) 11:40:14 145.827
Oscar 11 18 Nov 11:31:12 11:34:17 19° 299° (WNW) 11:37:21 .
POLYITAN 1 18 Nov 11:36:00 11:39:43 30° 66° (ENE) 11:43:26 437.675
AO-85 18 Nov 11:47:09 11:49:14 13° 15° (NNE) 11:51:21 145.980
BEESAT 3 18 Nov 11:53:22 11:56:43 25° 35° (NE) 12:00:00 437.485
AIST 2D 18 Nov 11:54:58 11:58:24 66° 258° (WSW) 12:01:52 435.315
LO-87 18 Nov 11:57:49 12:00:32 20° 93° (E) 12:03:14 145.935 - 145.965
QB50P2 18 Nov 11:58:28 12:02:38 54° 71° (ENE) 12:06:47 145.880/145.840
ESTCUBE 1 18 Nov 12:09:27 12:13:06 23° 93° (E) 12:16:45 437.505/2401.250
Gurwin Techsat 1B 18 Nov 12:24:32 12:27:17 14° 52° (NE) 12:30:03 435.225
BUGSAT 1 18 Nov 12:26:20 12:29:37 23° 63° (ENE) 12:32:54 437.445
Oscar 19 18 Nov 12:26:54 12:30:20 18° 56° (NE) 12:33:46 437.125/150
DELFI C3 18 Nov 12:32:33 12:35:07 17° 299° (WNW) 12:37:42 145.870
SPROUT 18 Nov 12:36:24 12:37:41 11° 86° (E) 12:38:58 437.525
Max Valier Satellite 18 Nov 12:49:28 12:51:14 13° 300° (WNW) 12:53:01 145.860
AO-7 18 Nov 12:51:39 12:56:07 16° 33° (NNE) 13:00:34 .
DUCHIFAT 1 18 Nov 12:53:59 12:58:10 59° 259° (W) 13:02:20 145.980
EO-88 18 Nov 12:55:53 12:58:00 15° 299° (WNW) 13:00:08 145.990 - 145.960
BEESAT 2 18 Nov 12:56:00 12:59:36 30° 37° (NE) 13:03:11 435.950
EO-79 18 Nov 12:56:59 13:01:02 43° 261° (W) 13:05:08 145.935-145.965
NANOSAT C BR1 18 Nov 13:02:41 13:06:44 42° 262° (W) 13:10:46 145.865
POLYITAN 1 18 Nov 13:11:38 13:15:27 32° 264° (W) 13:19:17 437.675
AO-85 18 Nov 13:26:53 13:30:56 32° 38° (NE) 13:35:15 145.980
BEESAT 3 18 Nov 13:30:38 13:34:33 57° 235° (SW) 13:38:23 437.485
LO-87 18 Nov 13:30:47 13:34:02 33° 291° (WNW) 13:37:14 145.935 - 145.965
QB50P2 18 Nov 13:35:48 13:38:44 18° 269° (W) 13:41:40 145.880/145.840
ESTCUBE 1 18 Nov 13:45:47 13:50:07 45° 291° (WNW) 13:54:26 437.505/2401.250
BUGSAT 1 18 Nov 14:00:42 14:04:44 44° 261° (W) 14:08:46 437.445
Gurwin Techsat 1B 18 Nov 14:01:03 14:06:21 72° 71° (ENE) 14:11:41 435.225
Oscar 19 18 Nov 14:03:55 14:09:03 81° 256° (WSW) 14:14:13 437.125/150
M-CUBED/EXP-1 PRIME 18 Nov 14:04:48 14:08:03 34° 61° (ENE) 14:11:34 437.505
SPROUT 18 Nov 14:09:55 14:14:12 87° 289° (WNW) 14:18:27 437.525
ITAMSAT 1 18 Nov 14:13:06 14:15:24 13° 50° (NE) 14:17:43 435.822/435.867
VELOX 1 18 Nov 14:21:32 14:26:02 78° 104° (ESE) 14:30:29 145.980
O/OREOS (USA 219) 18 Nov 14:25:30 14:28:20 16° 100° (E) 14:31:11 437.305
UKube-1 18 Nov 14:32:33 14:35:29 18° 91° (E) 14:38:24 .
BEESAT 2 18 Nov 14:33:37 14:37:29 45° 238° (WSW) 14:41:17 435.950
AO-7 18 Nov 14:39:09 14:46:54 46° 57° (ENE) 14:54:40 .
50 SAT 18 Nov 14:45:36 14:48:39 35° 99° (E) 14:51:39 437.505
AO-85 18 Nov 15:07:05 15:11:35 55° 236° (WSW) 15:16:26 145.980
DX 1 18 Nov 15:18:04 15:22:28 73° 102° (ESE) 15:26:50 434.975-435.025
YUBILEINY 18 Nov 15:18:08 15:21:01 12° 39° (NE) 15:23:54 435.215
M-CUBED/EXP-1 PRIME 18 Nov 15:39:47 15:42:36 22° 261° (W) 15:45:36 437.505
Gurwin Techsat 1B 18 Nov 15:43:08 15:46:51 19° 271° (W) 15:50:36 435.225
BEESAT 18 Nov 15:44:36 15:47:29 16° 89° (E) 15:50:21 436.000
Oscar 19 18 Nov 15:47:05 15:49:12 12° 274° (W) 15:51:20 437.125/150
SPROUT 18 Nov 15:47:37 15:49:25 13° 304° (NW) 15:51:13 437.525
ITAMSAT 1 18 Nov 15:48:44 15:53:55 65° 70° (ENE) 15:59:07 435.822/435.867
ITUPSAT 1 18 Nov 15:51:40 15:54:55 18° 90° (E) 15:58:08 437.325
VELOX 1 18 Nov 15:59:14 16:01:54 16° 303° (WNW) 16:04:33 145.980
O/OREOS (USA 219) 18 Nov 16:02:35 16:07:11 71° 299° (WNW) 16:11:48 437.305
UKube-1 18 Nov 16:07:35 16:11:52 57° 289° (WNW) 16:16:06 .
DOVE 4 18 Nov 16:12:52 16:16:44 22° 59° (ENE) 16:20:43 437.250
50 SAT 18 Nov 16:18:22 16:20:31 17° 296° (WNW) 16:22:39 437.505
HO-68 18 Nov 16:28:40 16:28:50 10° 33° (NNE) 16:29:01 435.675
AO-7 18 Nov 16:31:34 16:39:35 53° 258° (WSW) 16:47:42 .
MOZHAYETS 4 18 Nov 16:35:38 16:40:08 58° 101° (E) 16:44:39
CUBESAT XI-V 18 Nov 16:38:55 16:42:06 18° 90° (E) 16:45:18 437.345
NO-84 18 Nov 16:46:05 16:47:49 13° 126° (SE) 16:49:36 435.350 FM
DX 1 18 Nov 16:55:24 16:58:08 16° 302° (WNW) 17:00:52 434.975-435.025
CUTE-I 18 Nov 16:59:15 17:02:23 16° 53° (NE) 17:05:32 437.470
YUBILEINY 18 Nov 17:12:37 17:20:57 43° 67° (ENE) 17:29:13 435.215
XW-2D 18 Nov 17:13:16 17:15:07 13° 60° (ENE) 17:16:58 145.860 - 145.880
BEESAT 18 Nov 17:21:02 17:25:49 74° 287° (WNW) 17:30:32 436.000
XW-2B 18 Nov 17:27:11 17:29:42 17° 62° (ENE) 17:32:13 145.730 - 145.750
ITUPSAT 1 18 Nov 17:28:28 17:33:12 65° 289° (WNW) 17:37:54 437.325
ITAMSAT 1 18 Nov 17:29:57 17:33:50 21° 269° (W) 17:37:45 435.822/435.867
O/OREOS (USA 219) 18 Nov 17:44:56 17:47:29 14° 320° (NW) 17:50:01 437.305
DOVE 4 18 Nov 17:48:55 17:53:54 66° 259° (W) 17:59:08 437.250
LilacSat-2 18 Nov 17:49:22 17:52:42 30° 68° (ENE) 17:56:02 437.200
XW-2C 18 Nov 17:51:37 17:54:55 30° 67° (ENE) 17:58:13 145.795 - 145.815
NUDT-PHONESAT 18 Nov 17:56:12 17:59:10 24° 66° (ENE) 18:02:10 437.300
XW-2F 18 Nov 18:05:15 18:08:43 39° 70° (ENE) 18:12:13 145.980 - 146.000
HO-68 18 Nov 18:08:11 18:14:29 34° 56° (ENE) 18:20:48 435.675
MOZHAYETS 4 18 Nov 18:13:34 18:16:55 21° 299° (WNW) 18:20:16
CUBESAT XI-V 18 Nov 18:15:16 18:19:54 64° 288° (WNW) 18:24:32 437.345
CUTE 1.7 + AOD 2 18 Nov 18:17:53 18:20:45 18° 61° (ENE) 18:23:39 437.475
NO-84 18 Nov 18:20:35 18:24:25 64° 145° (SE) 18:28:32 435.350 FM
AO-7 18 Nov 18:32:51 18:34:26 11° 280° (W) 18:36:00 .
CUTE-I 18 Nov 18:36:15 18:41:37 79° 72° (ENE) 18:47:01 437.470
KAITUO 1B 18 Nov 18:38:43 18:42:22 74° 75° (ENE) 18:46:04 145.475/437.950
CUBEBUG 2 18 Nov 18:39:30 18:42:51 20° 62° (ENE) 18:46:07 437.445
XW-2D 18 Nov 18:45:06 18:48:47 67° 257° (WSW) 18:52:33 145.860 - 145.880
KKS-1 18 Nov 18:51:31 18:56:02 78° 104° (ESE) 19:00:29 437.445
SEEDS 18 Nov 18:54:10 18:57:35 25° 65° (ENE) 19:01:02 437.485
XW-2B 18 Nov 18:59:57 19:03:33 47° 260° (W) 19:07:12 145.730 - 145.750
BEESAT 18 Nov 19:00:41 19:02:46 13° 307° (NW) 19:04:52 436.000
ITUPSAT 1 18 Nov 19:08:34 19:10:07 12° 308° (NW) 19:11:41 437.325
YUBILEINY 18 Nov 19:09:31 19:18:02 55° 270° (W) 19:26:32 435.215
AAUSAT CUBESAT 2 18 Nov 19:11:39 19:14:30 18° 61° (ENE) 19:17:23 437.432
Oscar 11 18 Nov 19:20:41 19:21:43 11° 55° (NE) 19:22:45 .
RS-15 18 Nov 19:23:37 19:33:53 33° 104° (ESE) 19:44:05 29.354- 29.394
LilacSat-2 18 Nov 19:23:53 19:27:00 24° 266° (W) 19:30:08 437.200
STARS 18 Nov 19:25:06 19:29:32 72° 103° (ESE) 19:33:55 437.465
XW-2C 18 Nov 19:26:00 19:29:06 25° 266° (W) 19:32:14 145.795 - 145.815
NUDT-PHONESAT 18 Nov 19:29:40 19:32:55 30° 264° (W) 19:36:12 437.300
STRAND 1 18 Nov 19:30:27 19:32:27 12° 85° (E) 19:34:26 437.568
XW-2F 18 Nov 19:40:17 19:42:59 19° 268° (W) 19:45:42 145.980 - 146.000
ZACube-1 18 Nov 19:40:41 19:44:10 24° 64° (ENE) 19:47:36 437.345
UWE-3 18 Nov 19:42:09 19:46:23 43° 69° (ENE) 19:50:30 435.000/436.395/437.385
CUTE 1.7 + AOD 2 18 Nov 19:52:04 19:56:11 57° 259° (W) 20:00:22 437.475
HO-68 18 Nov 19:54:44 20:01:51 63° 257° (WSW) 20:09:03 435.675
CUBESAT XI-V 18 Nov 19:55:17 19:56:22 11° 307° (NW) 19:57:28 437.345
NO-84 18 Nov 19:58:03 20:01:58 46° 346° (NNW) 20:06:04 435.350 FM
XW-2A 18 Nov 20:08:16 20:11:34 72° 75° (ENE) 20:14:54 145.665 - 145.685
CUBEBUG 2 18 Nov 20:14:33 20:19:06 58° 259° (W) 20:23:33 437.445
KAITUO 1B 18 Nov 20:16:13 20:16:51 10° 273° (W) 20:17:27 145.475/437.950
CUTE-I 18 Nov 20:18:47 20:22:18 18° 272° (W) 20:25:51 437.470
FO-29 18 Nov 20:21:32 20:26:21 17° 81° (E) 20:31:03 435.910
SEEDS 18 Nov 20:29:14 20:33:07 38° 263° (W) 20:37:03 437.485
KKS-1 18 Nov 20:29:18 20:32:01 16° 303° (WNW) 20:34:43 437.445
AO-73 18 Nov 20:32:46 20:37:03 66° 73° (ENE) 20:41:15 145.935
AAUSAT CUBESAT 2 18 Nov 20:45:32 20:49:35 54° 260° (W) 20:53:41 437.432
Oscar 11 18 Nov 20:52:48 20:57:05 73° 74° (ENE) 21:01:23 .
STARS 18 Nov 21:02:35 21:05:22 17° 302° (WNW) 21:08:07 437.465
STRAND 1 18 Nov 21:07:18 21:12:29 80° 104° (ESE) 21:17:36 437.568
YUBILEINY 18 Nov 21:09:50 21:12:40 12° 293° (WNW) 21:15:30 435.215
ZACube-1 18 Nov 21:16:08 21:20:16 41° 262° (W) 21:24:20 437.345
UWE-3 18 Nov 21:19:22 21:22:59 24° 267° (W) 21:26:33 435.000/436.395/437.385
RS-15 18 Nov 21:32:40 21:45:05 88° 309° (NW) 21:57:21 29.354- 29.394
NO-84 18 Nov 21:35:58 21:39:56 40° 7° (N) 21:44:00 435.350 FM
DELFI C3 18 Nov 21:45:40 21:49:34 58° 72° (ENE) 21:53:30 145.870
HO-68 18 Nov 21:48:04 21:51:04 13° 278° (W) 21:54:05 435.675
Max Valier Satellite 18 Nov 21:56:41 22:00:16 52° 72° (ENE) 22:03:50 145.860
EO-88 18 Nov 22:02:29 22:05:56 43° 71° (ENE) 22:09:24 145.990 - 145.960
FO-29 18 Nov 22:04:49 22:12:44 71° 102° (ESE) 22:20:21 435.910
AO-73 18 Nov 22:11:13 22:13:42 15° 271° (W) 22:16:10 145.935
Oscar 11 18 Nov 22:31:32 22:33:43 14° 272° (W) 22:35:56 .
UNISAT 6 18 Nov 22:36:06 22:39:44 26° 94° (E) 22:43:19 437.425
LO-87 18 Nov 22:38:00 22:40:29 18° 63° (ENE) 22:42:58 145.935 - 145.965
TIGRISAT 18 Nov 22:41:18 22:44:58 27° 94° (E) 22:48:36 435.000
STRAND 1 18 Nov 22:47:35 22:51:05 19° 304° (WNW) 22:54:33 437.568
O/OREOS (USA 219) 18 Nov 22:51:04 22:53:21 13° 38° (NE) 22:55:38 437.305
PRISM 18 Nov 22:57:25 23:00:02 16° 90° (E) 23:02:38 437.425
nSIGHT-1 18 Nov 23:09:10 23:11:32 19° 142° (SE) 23:13:56 .
ESTCUBE 1 18 Nov 23:12:49 23:16:53 35° 66° (ENE) 23:20:59 437.505/2401.250
NO-84 18 Nov 23:13:27 23:17:43 82° 29° (NNE) 23:22:00 435.350 FM
DELFI C3 18 Nov 23:22:22 23:24:41 15° 271° (W) 23:27:00 145.870
Max Valier Satellite 18 Nov 23:32:25 23:34:24 14° 270° (W) 23:36:22 145.860
SPROUT 18 Nov 23:33:01 23:35:44 17° 59° (ENE) 23:38:27 437.525
EO-88 18 Nov 23:37:28 23:39:48 16° 269° (W) 23:42:08 145.990 - 145.960
ISS 18 Nov 23:42:47 23:45:40 29° 146° (SE) 23:48:32 437.550
RS-15 18 Nov 23:47:33 23:59:16 46° 338° (NNW) 00:10:42 29.354- 29.394
VELOX 1 18 Nov 23:48:11 23:51:02 17° 58° (ENE) 23:53:56 145.980
FO-29 18 Nov 23:50:21 23:57:11 34° 303° (WNW) 00:03:55 435.910
SO-50 19 Nov 00:08:02 00:12:25 58° 125° (SE) 00:16:53 436.795
LO-87 19 Nov 00:10:09 00:13:36 42° 261° (W) 00:17:04 145.935 - 145.965
UNISAT 6 19 Nov 00:12:35 00:16:33 36° 293° (WNW) 00:20:28 437.425
TIGRISAT 19 Nov 00:17:49 00:21:45 35° 293° (WNW) 00:25:38 435.000
O/OREOS (USA 219) 19 Nov 00:29:09 00:33:43 65° 61° (ENE) 00:38:13 437.305
PRISM 19 Nov 00:31:33 00:35:41 59° 289° (WNW) 00:39:46 437.425
DUCHIFAT 1 19 Nov 00:34:25 00:37:01 16° 90° (E) 00:39:36 145.980
EO-79 19 Nov 00:37:27 00:40:43 22° 93° (E) 00:43:58 145.935-145.965
NANOSAT C BR1 19 Nov 00:42:44 00:46:01 22° 93° (E) 00:49:16 145.865
DX 1 19 Nov 00:43:28 00:46:06 16° 57° (ENE) 00:48:45 434.975-435.025
nSIGHT-1 19 Nov 00:44:12 00:47:26 80° 158° (SSE) 00:50:38 .
AIST 2D 19 Nov 00:48:19 00:51:51 81° 103° (ESE) 00:55:23 435.315
ESTCUBE 1 19 Nov 00:49:48 00:53:44 30° 265° (W) 00:57:41 437.505/2401.250
NO-84 19 Nov 00:51:14 00:54:46 25° 227° (SW) 00:58:16 435.350 FM
POLYITAN 1 19 Nov 00:51:37 00:55:19 29° 95° (E) 00:58:58 437.675
SPROUT 19 Nov 01:06:52 01:11:08 68° 258° (WSW) 01:15:26 437.525
QB50P2 19 Nov 01:14:24 01:18:33 55° 100° (E) 01:22:40 145.880/145.840
50 SAT 19 Nov 01:16:52 01:19:33 24° 67° (ENE) 01:22:14 437.505
ISS 19 Nov 01:18:39 01:21:56 80° 344° (NNW) 01:25:12 437.550
VELOX 1 19 Nov 01:22:33 01:26:59 71° 257° (WSW) 01:31:27 145.980
UKube-1 19 Nov 01:30:39 01:34:16 27° 63° (ENE) 01:37:54 .
BUGSAT 1 19 Nov 01:38:32 01:41:27 19° 92° (E) 01:44:19 437.445
FO-29 19 Nov 01:38:34 01:39:58 11° 325° (NW) 01:41:22 435.910
SO-50 19 Nov 01:49:13 01:53:11 29° 325° (NW) 01:57:11 436.795
RS-15 19 Nov 02:03:58 02:15:19 41° 12° (NNE) 02:26:12 29.354- 29.394
MOZHAYETS 4 19 Nov 02:07:03 02:09:27 14° 56° (NE) 02:11:51
DUCHIFAT 1 19 Nov 02:08:57 02:13:04 59° 288° (WNW) 02:17:09 145.980
O/OREOS (USA 219) 19 Nov 02:09:38 02:12:37 17° 260° (W) 02:15:34 437.305
Oscar 19 19 Nov 02:11:24 02:15:40 25° 93° (E) 02:19:54 437.125/150
EO-79 19 Nov 02:12:41 02:16:41 43° 291° (WNW) 02:20:38 145.935-145.965
Gurwin Techsat 1B 19 Nov 02:13:35 02:17:29 20° 90° (E) 02:21:22 435.225
PCSat 19 Nov 02:15:05 02:20:19 52° 117° (ESE) 02:25:34 145.827
DX 1 19 Nov 02:17:22 02:21:44 76° 256° (WSW) 02:26:09 434.975-435.025
NANOSAT C BR1 19 Nov 02:17:56 02:21:54 42° 291° (WNW) 02:25:51 145.865
nSIGHT-1 19 Nov 02:20:37 02:23:47 57° 359° (N) 02:26:57 .
AIST 2D 19 Nov 02:23:57 02:24:27 10° 301° (WNW) 02:24:57 435.315
POLYITAN 1 19 Nov 02:27:21 02:31:06 32° 294° (WNW) 02:34:49 437.675
50 SAT 19 Nov 02:48:56 02:51:36 23° 265° (W) 02:54:18 437.505
QB50P2 19 Nov 02:51:00 02:53:59 19° 299° (WNW) 02:56:56 145.880/145.840
BEESAT 19 Nov 02:54:31 02:58:41 31° 63° (ENE) 03:02:51 436.000
ISS 19 Nov 02:55:20 02:58:35 59° 4° (N) 03:01:50 437.550
ITUPSAT 1 19 Nov 03:02:02 03:06:21 35° 65° (ENE) 03:10:40 437.325
UKube-1 19 Nov 03:06:06 03:10:08 38° 262° (W) 03:14:13 .
M-CUBED/EXP-1 PRIME 19 Nov 03:12:54 03:15:43 16° 96° (E) 03:18:33 437.505
BUGSAT 1 19 Nov 03:13:09 03:17:04 46° 290° (WNW) 03:20:55 437.445
